• In Latvia
  • List of Countries
  • For 7 days
  • Water Temperature
  • Satellite Maps
  • Weather Map
  • Weather Widgets
  • user-avatar
    Login

    Hourly Weather Beshkazak

    Today, 24 April, Tuesday

    Time Temperature Precipitation Wind Pressure Humidity
    00:00 +23°C° 0 mm 6 mps 699 mmHg 32%
    01:00 +23°C° 0 mm 6 mps 699 mmHg 30%
    02:00 +24°C° 0 mm 6 mps 698 mmHg 30%
    03:00 +24°C° 0 mm 6 mps 698 mmHg 30%
    04:00 +26°C° 0 mm 7 mps 698 mmHg 30%
    05:00 +26°C° 0.1 mm 6 mps 698 mmHg 35%
    06:00 +26°C° 0.1 mm 5 mps 699 mmHg 39%
    07:00 +25°C° 0.1 mm 4 mps 699 mmHg 43%
    08:00 +25°C° 0.1 mm 5 mps 700 mmHg 44%
    09:00 +24°C° 0.1 mm 6 mps 700 mmHg 46%
    10:00 +24°C° 0 mm 8 mps 701 mmHg 48%
    11:00 +23°C° 0.1 mm 7 mps 702 mmHg 53%
    12:00 +22°C° 0.1 mm 7 mps 702 mmHg 59%
    13:00 +21°C° 0.1 mm 6 mps 703 mmHg 64%
    14:00 +21°C° 0.2 mm 5 mps 703 mmHg 65%
    15:00 +20°C° 0.2 mm 5 mps 704 mmHg 66%
    16:00 +20°C° 0.2 mm 4 mps 704 mmHg 67%
    17:00 +19°C° 0.1 mm 3 mps 705 mmHg 71%
    18:00 +18°C° 0.1 mm 3 mps 705 mmHg 76%
    19:00 +17°C° 0.1 mm 2 mps 706 mmHg 80%
    20:00 +16°C° 0 mm 2 mps 706 mmHg 81%
    21:00 +16°C° 0 mm 2 mps 706 mmHg 82%
    22:00 +15°C° 0 mm 1 mps 707 mmHg 83%
    23:00 +15°C° 0 mm 1 mps 707 mmHg 84%

    Tomorrow, 25 April, Wednesday

    Time Temperature Precipitation Wind Pressure Humidity
    00:00 +14°C° 0 mm 1 mps 707 mmHg 85%
    01:00 +14°C° 0 mm 1 mps 707 mmHg 86%
    02:00 +14°C° 0 mm 1 mps 707 mmHg 87%
    03:00 +14°C° 0 mm 1 mps 707 mmHg 87%
    04:00 +13°C° 0 mm 1 mps 707 mmHg 88%
    05:00 +14°C° 0 mm 1 mps 707 mmHg 83%
    06:00 +15°C° 0 mm 1 mps 708 mmHg 78%
    07:00 +16°C° 0 mm 2 mps 708 mmHg 73%
    08:00 +17°C° 0 mm 2 mps 708 mmHg 65%
    09:00 +18°C° 0 mm 2 mps 709 mmHg 58%
    10:00 +20°C° 0 mm 3 mps 709 mmHg 51%
    11:00 +20°C° 0 mm 3 mps 709 mmHg 48%
    12:00 +21°C° 0 mm 3 mps 709 mmHg 45%
    13:00 +21°C° 0 mm 4 mps 709 mmHg 42%
    14:00 +21°C° 0 mm 3 mps 709 mmHg 42%
    15:00 +21°C° 0 mm 3 mps 708 mmHg 43%
    16:00 +21°C° 0 mm 3 mps 708 mmHg 43%
    17:00 +19°C° 0 mm 2 mps 708 mmHg 47%
    18:00 +18°C° 0 mm 2 mps 708 mmHg 51%
    19:00 +16°C° 0 mm 2 mps 708 mmHg 56%
    20:00 +16°C° 0 mm 2 mps 708 mmHg 57%
    21:00 +15°C° 0 mm 2 mps 708 mmHg 59%
    22:00 +15°C° 0 mm 2 mps 708 mmHg 60%
    23:00 +15°C° 0 mm 2 mps 708 mmHg 61%

    Day after tomorrow, 26 April, Thursday

    Time Temperature Precipitation Wind Pressure Humidity
    00:00 +14°C° 0 mm 2 mps 707 mmHg 62%
    01:00 +14°C° 0 mm 2 mps 707 mmHg 63%
    02:00 +14°C° 0 mm 2 mps 707 mmHg 63%
    03:00 +14°C° 0 mm 2 mps 707 mmHg 62%
    04:00 +13°C° 0 mm 2 mps 707 mmHg 62%
    05:00 +15°C° 0 mm 2 mps 707 mmHg 57%
    06:00 +16°C° 0 mm 2 mps 708 mmHg 53%
    07:00 +18°C° 0 mm 2 mps 708 mmHg 49%
    08:00 +19°C° 0 mm 2 mps 708 mmHg 43%
    09:00 +21°C° 0 mm 2 mps 708 mmHg 37%
    10:00 +23°C° 0 mm 2 mps 708 mmHg 31%
    11:00 +24°C° 0 mm 2 mps 708 mmHg 30%
    12:00 +25°C° 0 mm 2 mps 708 mmHg 29%
    13:00 +25°C° 0 mm 2 mps 707 mmHg 29%
    14:00 +25°C° 0 mm 3 mps 707 mmHg 30%
    15:00 +25°C° 0 mm 3 mps 706 mmHg 32%
    16:00 +25°C° 0 mm 3 mps 706 mmHg 34%
    17:00 +22°C° 0 mm 3 mps 706 mmHg 40%
    18:00 +20°C° 0 mm 3 mps 706 mmHg 47%
    19:00 +18°C° 0 mm 3 mps 706 mmHg 53%
    20:00 +18°C° 0 mm 3 mps 706 mmHg 54%
    21:00 +17°C° 0 mm 3 mps 706 mmHg 55%
    22:00 +17°C° 0 mm 3 mps 706 mmHg 56%
    23:00 +16°C° 0 mm 3 mps 706 mmHg 56%

    27 April, Friday

    Time Temperature Precipitation Wind Pressure Humidity
    00:00 +16°C° 0 mm 3 mps 706 mmHg 57%
    01:00 +16°C° 0 mm 2 mps 706 mmHg 58%
    02:00 +15°C° 0 mm 2 mps 706 mmHg 58%
    03:00 +15°C° 0 mm 2 mps 706 mmHg 58%
    04:00 +15°C° 0 mm 2 mps 706 mmHg 58%
    05:00 +16°C° 0 mm 2 mps 706 mmHg 53%
    06:00 +18°C° 0 mm 2 mps 707 mmHg 48%
    07:00 +19°C° 0 mm 2 mps 707 mmHg 44%
    08:00 +21°C° 0 mm 2 mps 708 mmHg 39%
    09:00 +23°C° 0 mm 2 mps 708 mmHg 34%
    10:00 +25°C° 0 mm 2 mps 708 mmHg 29%
    11:00 +25°C° 0 mm 2 mps 708 mmHg 29%
    12:00 +26°C° 0 mm 3 mps 708 mmHg 30%
    13:00 +26°C° 0 mm 3 mps 708 mmHg 30%
    14:00 +26°C° 0 mm 3 mps 708 mmHg 31%
    15:00 +26°C° 0 mm 3 mps 707 mmHg 32%
    16:00 +25°C° 0 mm 3 mps 707 mmHg 33%
    17:00 +24°C° 0 mm 3 mps 707 mmHg 37%
    18:00 +21°C° 0 mm 3 mps 707 mmHg 42%
    19:00 +19°C° 0 mm 3 mps 707 mmHg 46%
    20:00 +18°C° 0 mm 3 mps 707 mmHg 47%
    21:00 +18°C° 0 mm 3 mps 707 mmHg 47%
    22:00 +17°C° 0 mm 3 mps 707 mmHg 47%
    23:00 +17°C° 0 mm 3 mps 707 mmHg 48%

    28 April, Saturday

    Time Temperature Precipitation Wind Pressure Humidity
    00:00 +17°C° 0 mm 3 mps 707 mmHg 49%
    01:00 +17°C° 0 mm 3 mps 706 mmHg 49%
    02:00 +16°C° 0 mm 3 mps 706 mmHg 50%
    03:00 +16°C° 0 mm 3 mps 706 mmHg 51%
    04:00 +16°C° 0 mm 3 mps 706 mmHg 51%
    05:00 +17°C° 0 mm 3 mps 707 mmHg 48%
    06:00 +19°C° 0 mm 3 mps 707 mmHg 46%
    07:00 +21°C° 0 mm 3 mps 707 mmHg 43%
    08:00 +23°C° 0 mm 2 mps 707 mmHg 37%
    09:00 +25°C° 0 mm 2 mps 708 mmHg 32%
    10:00 +26°C° 0 mm 2 mps 708 mmHg 26%
    11:00 +27°C° 0 mm 2 mps 707 mmHg 25%
    12:00 +27°C° 0 mm 2 mps 707 mmHg 25%
    13:00 +28°C° 0 mm 2 mps 706 mmHg 24%
    14:00 +28°C° 0 mm 2 mps 706 mmHg 26%
    15:00 +28°C° 0 mm 2 mps 705 mmHg 27%
    16:00 +28°C° 0 mm 2 mps 705 mmHg 28%
    17:00 +26°C° 0 mm 2 mps 705 mmHg 33%
    18:00 +24°C° 0 mm 2 mps 705 mmHg 38%
    19:00 +21°C° 0 mm 2 mps 704 mmHg 42%
    20:00 +21°C° 0 mm 2 mps 704 mmHg 42%
    21:00 +20°C° 0 mm 2 mps 704 mmHg 42%
    22:00 +20°C° 0 mm 2 mps 704 mmHg 41%
    23:00 +20°C° 0 mm 2 mps 704 mmHg 40%

    29 April, Sunday

    Time Temperature Precipitation Wind Pressure Humidity
    00:00 +19°C° 0 mm 2 mps 704 mmHg 38%
    01:00 +19°C° 0 mm 2 mps 703 mmHg 36%
    02:00 +19°C° 0 mm 2 mps 703 mmHg 34%
    03:00 +19°C° 0 mm 2 mps 703 mmHg 32%
    04:00 +18°C° 0 mm 2 mps 703 mmHg 29%
    05:00 +20°C° 0 mm 2 mps 704 mmHg 28%
    06:00 +23°C° 0 mm 2 mps 704 mmHg 27%
    07:00 +25°C° 0 mm 1 mps 704 mmHg 26%
    08:00 +26°C° 0 mm 2 mps 705 mmHg 24%
    09:00 +27°C° 0 mm 2 mps 705 mmHg 22%
    10:00 +28°C° 0 mm 2 mps 705 mmHg 21%
    11:00 +29°C° 0 mm 2 mps 704 mmHg 21%
    12:00 +29°C° 0 mm 2 mps 704 mmHg 21%
    13:00 +30°C° 0 mm 2 mps 703 mmHg 21%
    14:00 +30°C° 0 mm 2 mps 703 mmHg 22%
    15:00 +29°C° 0 mm 2 mps 703 mmHg 24%
    16:00 +29°C° 0 mm 2 mps 702 mmHg 25%
    17:00 +27°C° 0 mm 2 mps 702 mmHg 29%
    18:00 +25°C° 0 mm 2 mps 702 mmHg 34%
    19:00 +23°C° 0 mm 1 mps 702 mmHg 38%
    20:00 +23°C° 0 mm 2 mps 702 mmHg 38%
    21:00 +23°C° 0 mm 2 mps 702 mmHg 38%
    22:00 +23°C° 0 mm 2 mps 702 mmHg 38%
    23:00 +23°C° 0 mm 2 mps 702 mmHg 37%
    Show more